Location: New Canada
(47.1017°N, 68.5042°W)
Time: 15:55:34
(UTC+00:00)

KKS-1 - Pass Details

Date: 26 April 2024
Orbit: 628 x 639 km, 98.1° (Epoch: 21 May)

Event Time Altitude Azimuth Distance (km) Brightness Sun altitude
Rises 03:10:09 0° 22° (NNE) 2,957 ? -26.6°
Reaches altitude 10° 03:12:35 10° 33° (NNE) 2,042 ? -26.7°
Enters shadow 03:14:51 24° 57° (ENE) 1,343 ? -26.8°
